Wind_Speed
42 42 43 43 44 44 45 46 47 47 46 46 46 46 46 46 47 48 48 48 49 50 51 51 51 51 51 50 50 50 50 50 50 50 50 50 49 48
41 41 41 42 43 44 45 45 46 46 47 47 47 46 46 46 47 49 49 49 50 50 51 51 52 52 51 51 51 50 50 50 50 50 50 50 50 49
41 41 41 42 43 44 45 46 46 47 47 46 46 47 47 48 48 49 50 50 51 51 51 52 51 51 51 51 51 51 51 51 51 51 51 51 51 50
40 40 41 42 43 44 45 46 47 47 47 47 46 47 48 48 48 49 49 50 51 51 51 51 51 51 51 51 51 51 51 52 52 52 52 52 52 52
40 41 41 42 43 44 45 45 46 47 47 47 46 47 48 48 48 49 49 50 50 50 50 50 50 50 50 51 51 52 52 52 52 52 52 51 51 51
40 40 41 42 43 43 45 45 45 46 47 47 48 48 48 48 48 48 49 49 50 49 49 49 49 49 49 50 51 52 52 52 52 52 51 51 52 52
40 41 41 42 42 43 44 45 45 46 46 46 47 48 48 48 47 47 48 48 48 48 49 49 49 49 49 49 50 51 51 51 51 52 52 52 52 54
40 41 41 42 42 43 43 44 45 45 45 46 46 46 46 46 47 48 48 48 48 48 49 49 49 49 49 49 49 49 50 50 51 52 53 53 53 53
42 42 42 42 42 42 43 44 43 43 44 45 45 46 46 47 47 47 48 49 49 49 49 48 49 49 49 49 49 50 50 51 52 53 53 53 53 54
43 43 42 42 42 42 42 42 42 42 43 43 44 45 45 46 46 46 47 48 48 47 48 47 47 48 48 48 48 49 51 52 52 53 53 54 54 54
42 42 42 42 41 41 41 41 41 42 43 44 43 43 44 45 45 45 45 45 45 46 47 48 47 48 49 49 49 49 50 51 52 53 54 55 55 54
42 41 41 41 41 41 41 41 42 42 42 42 42 43 44 44 44 44 44 44 44 45 46 47 48 48 48 48 48 49 49 50 51 52 53 54 54 55
40 40 40 40 40 40 40 41 41 41 41 42 42 42 43 44 44 44 44 44 44 44 45 46 47 48 48 48 49 49 50 50 50 51 52 53 53 54
40 40 40 40 40 40 40 40 40 41 41 40 41 41 42 43 43 43 43 44 44 45 45 46 46 47 47 48 48 49 49 50 50 51 52 53 54 54
40 39 39 40 40 40 40 40 40 40 40 40 40 41 41 41 41 42 43 44 44 44 45 46 46 47 47 48 48 49 49 49 50 50 51 53 53 54
39 39 39 39 39 39 39 39 39 39 40 40 40 40 40 40 40 40 41 42 43 43 44 46 47 47 48 48 49 49 49 48 49 49 50 51 52 52
36 36 37 38 38 39 39 40 39 40 40 41 40 40 40 40 40 41 41 42 42 43 44 45 46 46 47 47 47 47 48 48 48 49 50 50 51 52
36 36 36 37 37 38 39 40 40 40 41 41 40 40 40 41 41 42 42 42 43 43 44 44 45 46 46 46 46 46 46 46 46 47 48 48 49 50
36 37 36 36 37 38 38 39 40 40 41 41 41 41 41 42 42 42 43 43 44 44 44 44 44 44 44 43 44 45 45 45 45 46 46 47 47 47
37 37 37 37 37 38 38 39 39 40 41 41 42 42 42 42 42 42 43 43 43 44 44 44 44 43 42 42 42 42 43 44 45 45 45 45 45 46
37 38 38 38 38 38 39 39 40 40 41 41 41 41 42 43 43 43 43 43 43 43 43 43 43 42 42 42 42 42 42 43 44 43 43 42 42 42
37 37 38 38 39 39 39 40 40 40 41 41 41 41 42 42 42 43 43 43 43 43 42 42 42 42 42 42 41 41 41 42 42 42 41 40 39 39
36 37 37 38 39 39 39 39 40 40 40 40 41 41 41 41 42 42 42 42 41 41 41 40 40 41 41 40 40 40 40 39 39 38 38 37 36 36
Wind_Direction
260 260 260 259 259 259 259 259 259 260 259 259 260 262 262 263 263 263 263 264 264 264 264 264 265 265 266 266 266 266 266 266 266 267 268 269 269 269
262 261 260 260 260 260 260 261 262 262 261 260 261 262 262 264 264 264 264 265 265 265 265 265 265 265 266 265 265 265 266 265 266 267 267 269 269 268
262 261 261 261 262 261 261 262 263 263 263 261 261 262 263 264 264 264 265 266 266 266 267 267 266 266 266 265 265 264 265 266 266 266 267 268 268 268
262 262 262 262 263 262 263 263 263 264 264 262 263 263 264 264 264 265 265 266 266 267 267 267 267 267 266 266 265 265 265 266 266 267 268 268 267 267
263 263 264 264 264 264 264 264 264 265 264 263 263 264 265 265 265 266 266 267 267 267 268 268 268 268 267 267 266 266 265 266 267 267 268 267 267 267
264 264 264 265 265 266 266 266 265 265 264 264 265 265 265 265 266 266 267 267 268 268 267 268 268 268 269 269 268 267 267 266 266 267 267 267 267 267
265 265 266 266 266 267 266 266 266 266 266 266 266 266 266 266 266 267 268 268 269 268 268 267 268 269 269 269 269 268 267 266 266 266 267 267 267 268
266 267 267 268 268 268 267 267 267 267 267 267 267 266 267 267 268 268 269 269 269 268 268 268 269 268 268 269 269 268 267 266 266 267 267 267 267 269
266 267 268 269 270 271 269 269 268 268 268 268 267 267 267 268 269 270 270 270 270 269 269 268 268 268 268 269 269 268 267 267 267 267 266 266 267 268
267 267 269 269 269 270 270 269 267 268 268 268 268 267 268 269 270 270 271 271 270 269 268 267 267 267 268 268 268 268 268 267 267 267 266 267 267 268
267 268 269 270 270 269 269 268 267 268 270 270 271 271 270 270 270 270 271 271 270 269 269 268 268 269 269 270 269 268 269 268 268 267 267 267 267 267
267 268 268 268 268 269 268 267 268 269 270 270 271 271 272 272 272 271 271 272 272 271 270 270 270 270 270 270 270 270 270 270 270 269 268 267 266 267
268 268 268 267 267 268 268 268 269 269 270 270 271 271 272 273 273 273 273 272 272 272 271 271 270 271 271 272 272 272 272 272 271 270 269 268 267 268
268 267 267 266 267 267 268 269 269 270 270 271 271 271 272 272 272 272 272 272 273 274 273 273 273 273 273 273 273 273 273 273 273 272 271 269 268 268
267 267 266 266 267 268 268 269 269 269 270 270 271 272 272 272 272 272 272 273 274 275 275 275 275 275 275 275 275 274 274 274 274 274 272 271 270 270
267 266 266 266 267 268 268 268 269 269 269 270 271 272 272 273 274 274 274 275 276 276 276 276 276 276 276 275 275 275 274 274 274 274 274 273 272 271
267 267 267 268 268 268 268 268 268 269 270 271 271 271 272 273 274 276 277 278 278 278 278 278 278 278 277 277 276 275 274 274 274 275 274 274 274 273
266 267 268 269 270 270 269 269 269 270 270 270 271 271 273 274 276 277 278 279 279 279 280 280 281 280 279 278 278 277 276 276 276 277 276 275 274 273
266 267 269 270 271 271 271 271 271 271 271 271 271 272 274 275 277 278 279 280 280 280 280 280 281 281 280 279 278 278 277 277 277 278 278 278 276 274
267 268 269 270 272 273 273 273 272 272 272 272 273 273 274 276 277 279 279 280 280 280 280 280 280 280 280 279 277 277 277 277 278 279 279 279 277 276
269 270 270 271 273 274 275 275 274 274 273 273 273 274 275 276 277 278 279 279 279 280 280 280 280 280 279 278 277 277 278 279 280 280 279 278 277 277
271 271 272 273 274 275 276 276 275 275 274 274 274 275 276 277 277 278 279 279 280 280 280 279 279 279 278 278 278 278 279 279 280 280 279 278 277 277
272 272 273 273 275 276 276 276 276 275 275 275 275 275 276 277 278 278 279 279 279 280 280 279 278 278 278 278 278 279 279 279 280 279 278 278 279 278
Height
5690 5690 5691 5692 5694 5695 5696 5698 5699 5701 5702 5702 5703 5703 5703 5704 5704 5704 5704 5705 5704 5704 5704 5704 5705 5705 5705 5705 5705 5705 5706 5706 5706 5707 5707 5708 5708 5708
5679 5680 5681 5682 5683 5684 5685 5686 5687 5688 5689 5691 5691 5691 5691 5691 5691 5691 5691 5691 5691 5690 5690 5691 5691 5691 5691 5691 5691 5692 5692 5693 5693 5694 5694 5695 5695 5695
5668 5669 5670 5671 5672 5673 5673 5674 5675 5675 5676 5678 5678 5678 5678 5678 5678 5677 5677 5677 5677 5677 5676 5676 5676 5676 5676 5676 5677 5678 5678 5679 5680 5680 5681 5681 5682 5682
5658 5659 5659 5660 5660 5661 5662 5662 5663 5663 5663 5664 5665 5665 5665 5665 5664 5664 5663 5663 5663 5663 5662 5662 5662 5662 5662 5662 5662 5663 5664 5665 5666 5666 5667 5668 5668 5668
5647 5648 5648 5648 5649 5649 5650 5650 5650 5650 5650 5650 5651 5652 5651 5651 5651 5650 5650 5649 5649 5649 5648 5648 5648 5648 5647 5647 5648 5649 5650 5651 5652 5652 5653 5653 5654 5655
5636 5637 5637 5637 5637 5637 5637 5637 5637 5637 5637 5637 5638 5638 5638 5638 5637 5637 5637 5636 5636 5635 5635 5635 5634 5634 5634 5634 5634 5635 5635 5636 5637 5638 5639 5640 5640 5641
5625 5626 5626 5626 5625 5625 5625 5625 5625 5625 5624 5624 5625 5625 5625 5625 5624 5624 5623 5622 5622 5622 5622 5622 5622 5621 5621 5620 5620 5620 5620 5621 5622 5623 5624 5625 5626 5627
5614 5614 5614 5613 5613 5613 5612 5612 5612 5612 5612 5612 5612 5612 5612 5612 5611 5611 5610 5610 5610 5610 5608 5608 5608 5608 5608 5608 5607 5606 5606 5607 5608 5609 5610 5611 5612 5612
5602 5602 5602 5602 5601 5600 5600 5599 5599 5599 5599 5599 5599 5599 5599 5599 5599 5598 5597 5596 5596 5596 5595 5595 5595 5595 5595 5594 5593 5593 5593 5593 5594 5594 5595 5596 5596 5597
5590 5590 5590 5589 5589 5588 5588 5587 5587 5587 5587 5587 5587 5587 5586 5586 5585 5585 5583 5583 5583 5582 5581 5582 5581 5581 5581 5581 5580 5580 5579 5579 5579 5579 5580 5580 5581 5581
5577 5577 5577 5577 5577 5576 5576 5576 5576 5575 5575 5574 5574 5574 5573 5573 5572 5572 5571 5570 5570 5570 5569 5569 5569 5568 5568 5568 5567 5566 5565 5565 5564 5564 5564 5565 5565 5566
5565 5565 5565 5565 5564 5563 5564 5564 5564 5564 5563 5563 5562 5562 5561 5560 5559 5559 5558 5558 5557 5557 5556 5556 5555 5554 5555 5554 5553 5552 5551 5551 5550 5549 5549 5549 5549 5550
5553 5553 5553 5553 5552 5552 5552 5552 5552 5552 5551 5551 5550 5549 5549 5548 5547 5546 5546 5545 5545 5545 5544 5542 5542 5540 5540 5540 5539 5538 5537 5536 5535 5535 5534 5534 5534 5534
5541 5541 5541 5541 5540 5540 5540 5540 5540 5539 5539 5538 5538 5537 5537 5536 5535 5534 5533 5533 5532 5531 5530 5529 5528 5527 5526 5525 5525 5524 5522 5521 5521 5520 5519 5519 5518 5518
5528 5529 5529 5529 5528 5528 5528 5528 5527 5527 5527 5526 5526 5526 5525 5524 5523 5522 5521 5520 5519 5518 5517 5515 5514 5513 5512 5511 5511 5510 5509 5507 5506 5505 5505 5504 5503 5503
5516 5517 5517 5517 5517 5517 5516 5516 5515 5515 5515 5515 5514 5514 5513 5512 5511 5510 5509 5508 5507 5506 5504 5502 5501 5499 5498 5497 5496 5495 5494 5493 5492 5491 5490 5489 5487 5487
5504 5505 5505 5505 5505 5505 5505 5504 5504 5503 5503 5503 5502 5501 5501 5500 5499 5498 5497 5495 5494 5493 5491 5489 5487 5485 5484 5482 5481 5480 5479 5478 5477 5476 5475 5474 5472 5471
5493 5494 5494 5494 5493 5493 5493 5492 5492 5492 5491 5491 5490 5489 5489 5488 5487 5486 5484 5483 5482 5480 5478 5476 5474 5472 5470 5469 5467 5466 5464 5464 5462 5461 5459 5458 5458 5456
5482 5483 5483 5483 5482 5481 5481 5480 5480 5479 5479 5478 5478 5477 5476 5475 5474 5473 5472 5470 5468 5467 5465 5463 5461 5459 5457 5456 5454 5451 5450 5449 5448 5447 5445 5444 5443 5442
5471 5471 5471 5471 5471 5470 5469 5468 5468 5467 5466 5465 5465 5464 5463 5463 5462 5460 5459 5457 5455 5453 5451 5450 5448 5446 5444 5443 5442 5440 5437 5435 5435 5433 5432 5430 5429 5428
5460 5460 5460 5460 5459 5458 5457 5456 5455 5454 5454 5453 5452 5451 5450 5450 5448 5447 5446 5444 5442 5440 5438 5437 5435 5433 5431 5430 5429 5428 5425 5423 5421 5420 5418 5417 5416 5415
5449 5449 5448 5448 5447 5446 5445 5444 5443 5442 5441 5440 5439 5438 5437 5436 5435 5434 5432 5431 5429 5427 5426 5424 5422 5420 5419 5417 5416 5415 5413 5411 5408 5406 5405 5404 5403 5403
5438 5437 5437 5436 5435 5434 5433 5432 5431 5430 5429 5428 5427 5426 5425 5423 5422 5421 5419 5418 5416 5414 5413 5411 5409 5408 5406 5405 5403 5402 5400 5398 5396 5395 5394 5392 5392 5392